Weather in Lebedevo

Russia / Novosibirsk Oblast     54°55′10″N   84°20′18″E
temp.,
°C
wind,
m/s
gust,
m/s
humid.,
%
clouds,
%
prec.,
mm/h
press.,
hPa
HPBL,
m
19 september, sun
sun1901:00+5ssw368285 0.0 1011105
04:00+6ssw4770100 0.0 1010248
07:00+5s5117247 0.0 1010310
10:00+8ssw61060100 0.0 1008633
13:00+12ssw794890 0.0 10061098
16:00+14ssw7134555 0.0 10032106
19:00+11wsw695592 0.1 10031081
22:00+7wsw5117543 0.0 1005580
20 september, mon
mon2001:00+7w51077100 0.1 1006660
04:00+4sw41087100 0.1 1007342
07:00+4sw5128320 0.1 1009574
10:00+5sw81269100 0.1 10101323
13:00+5sw91474100 0.4 10111373
16:00+5wsw91488100 0.8 10111229
19:00+4wsw71294100 1.7 1011951
22:00+3wsw4897100 0.6 1011641
21 september, tue
tue2101:00+2wsw5997100 1.7 1011572
04:00+1wsw4999100 0.4 1012475
07:00+1wsw51094100 0.8 1013510
10:00+2sw61194100 0.2 1013724
13:00+2wsw51197100 1.0 1014532
16:00+3w61097100 0.8 1015659
19:00+3w5998100 1.1 1017542
22:00+3w5993100 0.3 1018592
22 september, wed
wed2201:00+2wsw4890100 0.3 1019490
04:00+1wsw3893100 0.1 1019258
07:00+1wsw3797100 0.1 1020323
10:00+2wsw4796100 0.2 1020436
13:00+3wsw5790100 0.8 1020714
16:00+4wsw6776100 0.4 10201132
19:00+3wsw4891100 1.0 1020535
22:00+2sw4796100 0.1 1020334
23 september, thu
thu2301:00+2wsw3699100 0.8 1020322
04:00+2ssw37100100 0.4 1019350
07:000ssw4896100 0.8 1020367
10:00+2ssw5789100 0.0 1020565
13:00+2ssw4796100 0.3 1021409
16:00+2ssw2599100 0.3 1021327
19:00+2sw1299100 0.6 1023347
22:00+2nw1199100 0.2 1023265